Weather History for Nerlerit Inaat, Greenland

Change the Weather History Date:

Tuesday, November 27, 2012

  Actual Average Record
Temperature  
Mean Temperature 8 °F -  
Max Temperature 17 °F 8 °F 33 °F (2003)
Min Temperature 0 °F 3 °F -9 °F (2011)
Degree Days  
Heating Degree Days 56    
Moisture  
Dew Point 1 °F    
Average Humidity 68    
Maximum Humidity 79    
Minimum Humidity 53    
Precipitation  
Precipitation 0.00 in - - ()
Sea Level Pressure  
Sea Level Pressure 30.30 in    
Wind  
Wind Speed 3 mph ()    
Max Wind Speed 7 mph    
Max Gust Speed -    
Visibility 6.2 miles    
Events      
Averages and records for this station are not official NWS values.
T = Trace of Precipitation, MM = Missing Value Source: Averaged Metar Reports

Daily Weather History Graph

Daily Weather History Graph

Search for Another Location

Airport:

Trip Planner

Search our weather history database for the weather conditions in past years. The results will help you decide how hot, cold, wet, or windy it might be!

Date:

Astronomy

Nov. 27, 2012 Rise Set
Actual Time 11:45 AM EGT 12:50 PM EGT
Civil Twilight 9:40 AM EGT 2:55 PM EGT
Nautical Twilight 8:01 AM EGT 4:34 PM EGT
Astronomical Twilight 6:42 AM EGT 5:53 PM EGT
Moon 12:16 PM EGT (11/27) 10:33 AM EGT (11/27)
Length of Visible Light 5h 14m
Length of Day
1h 04m
Waxing Gibbous, 99% of the Moon is Illuminated
Nov 27
Waxing Gibbous
Nov 28
Full
Dec 6
Last Quarter
Dec 13
New
Dec 20
First Quarter

Hourly Weather History & Observations

Time (EGT) Temp. Windchill Dew Point Humidity Pressure Visibility Wind Dir Wind Speed Gust Speed Precip Events Conditions
12:50 AM 15.8 °F 8.6 °F 3.2 °F 58% 30.33 in - NW 4.6 mph - N/A   Overcast
1:50 AM 12.2 °F 4.3 °F 3.2 °F 67% 30.30 in - North 4.6 mph - N/A   Mostly Cloudy
2:50 AM 14.0 °F 8.2 °F 3.2 °F 62% 30.30 in - NNW 3.5 mph - N/A   Overcast
3:50 AM 14.0 °F 8.2 °F 5.0 °F 67% 30.30 in - WNW 3.5 mph - N/A   Mostly Cloudy
4:50 AM 17.6 °F 12.3 °F 3.2 °F 53% 30.30 in - NW 3.5 mph - N/A   Mostly Cloudy
5:50 AM 14.0 °F - 5.0 °F 67% 30.30 in - South 2.3 mph - N/A   Mostly Cloudy
6:50 AM 15.8 °F 10.2 °F 5.0 °F 62% 30.30 in - NW 3.5 mph - N/A   Overcast
7:50 AM 15.8 °F 10.2 °F 3.2 °F 58% 30.30 in - North 3.5 mph - N/A   Scattered Clouds
8:50 AM 14.0 °F 8.2 °F 3.2 °F 62% 30.30 in 6.2 mi NW 3.5 mph - N/A   Mostly Cloudy
9:50 AM 10.4 °F 2.2 °F 5.0 °F 79% 30.30 in 6.2 mi NW 4.6 mph - N/A   Mostly Cloudy
10:50 AM 12.2 °F - 3.2 °F 67% 30.30 in 6.2 mi Variable 2.3 mph - N/A   Mostly Cloudy
11:50 AM 10.4 °F - 1.4 °F 67% 30.30 in 6.2 mi Variable 2.3 mph - N/A   Scattered Clouds
12:50 PM 10.4 °F 2.2 °F 1.4 °F 67% 30.30 in 6.2 mi NW 4.6 mph - N/A   Partly Cloudy
1:50 PM 8.6 °F 0.1 °F -0.4 °F 67% 30.30 in 6.2 mi WNW 4.6 mph - N/A   Partly Cloudy
2:50 PM 6.8 °F - -0.4 °F 72% 30.30 in 6.2 mi Variable 1.2 mph - N/A   Partly Cloudy
3:50 PM 6.8 °F - -2.2 °F 67% 30.30 in 6.2 mi Variable 1.2 mph - N/A   Partly Cloudy
4:50 PM 3.2 °F - -2.2 °F 78% 30.30 in - SE 2.3 mph - N/A   Partly Cloudy
5:50 PM 6.8 °F -2.0 °F -2.2 °F 67% 30.30 in - NW 4.6 mph - N/A   Unknown
6:50 PM 10.4 °F 2.2 °F -0.4 °F 62% 30.30 in - WNW 4.6 mph - N/A   Unknown
7:50 PM 5.0 °F -6.9 °F -2.2 °F 72% 30.33 in - WNW 6.9 mph - N/A   Unknown
8:50 PM 5.0 °F - -2.2 °F 72% 30.33 in - Calm Calm - N/A   Unknown
9:50 PM -0.4 °F -8.3 °F -5.8 °F 78% 30.30 in - South 3.5 mph - N/A   Unknown
10:50 PM -0.4 °F -8.3 °F -5.8 °F 78% 30.30 in - North 3.5 mph - N/A   Unknown
11:50 PM 3.2 °F -6.2 °F -4.0 °F 72% 30.30 in - NNW 4.6 mph - N/A   Unknown